[TLELIST] Archives

 

[TLELIST] Current TLEs

February 14th 2024 PDT

HST 1 20580U 90037B 24044.83067599 .00008972 00000-0 44578-3 0 9992 2 20580 28.4690 97.1185 0003052 121.7477 238.3413 15.15924115658137 ISS (ZARYA) 1 25544U 98067A 24045.38207200 .00024121 00000-0 43079-3 0 9993 2 25544 51.6399 208.8971 0001884 262.8296 181.0748 15.49903494439357 CXO 1 25867U 99040B 24046.22721651 .00000677 00000-0 00000+0 0 9991 2 25867 38.7644 166.4387 8987243 287.0503 0.4927 0.37809626 25250 ...Continue Reading

[TLELIST] Current TLEs

February 13th 2024 PDT

HST 1 20580U 90037B 24043.57980064 .00008242 00000-0 40900-3 0 9998 2 20580 28.4691 105.4768 0003031 108.7036 251.3885 15.15902470657947 ISS (ZARYA) 1 25544U 98067A 24044.47279231 .00022042 00000-0 39514-3 0 9994 2 25544 51.6405 213.4034 0001920 239.1512 168.0044 15.49854137439214 CXO 1 25867U 99040B 24046.22721651 .00000677 00000-0 00000+0 0 9991 2 25867 38.7644 166.4387 8987243 287.0503 0.4927 0.37809626 25250 ...Continue Reading

[TLELIST] Current TLEs

February 13th 2024 PDT

HST 1 20580U 90037B 24043.57980064 .00008242 00000-0 40900-3 0 9998 2 20580 28.4691 105.4768 0003031 108.7036 251.3885 15.15902470657947 ISS (ZARYA) 1 25544U 98067A 24044.47279231 .00022042 00000-0 39514-3 0 9994 2 25544 51.6405 213.4034 0001920 239.1512 168.0044 15.49854137439214 CXO 1 25867U 99040B 24046.22721651 .00000677 00000-0 00000+0 0 9991 2 25867 38.7644 166.4387 8987243 287.0503 0.4927 0.37809626 25250 ...Continue Reading

[TLELIST] Current TLEs

February 12th 2024 PDT

HST 1 20580U 90037B 24042.59225452 .00008619 00000-0 42833-3 0 9997 2 20580 28.4691 112.0741 0003060 100.6823 259.4114 15.15887971657794 ISS (ZARYA) 1 25544U 98067A 24043.51459821 .00024146 00000-0 43257-3 0 9999 2 25544 51.6404 218.1523 0001911 230.6128 226.8660 15.49814353439063 CXO 1 25867U 99040B 24043.58273907 .00000794 00000-0 00000+0 0 9993 2 25867 38.7089 166.8249 8985306 286.7477 0.4972 0.37805711 25248 ...Continue Reading

[TLELIST] Current TLEs

February 11th 2024 PDT

HST 1 20580U 90037B 24042.19723285 .00007963 00000-0 39506-3 0 9994 2 20580 28.4690 114.7128 0003048 97.5613 262.5326 15.15881337657990 ISS (ZARYA) 1 25544U 98067A 24042.34797493 .00018508 00000-0 33438-3 0 9994 2 25544 51.6400 223.9313 0002104 230.9683 193.3538 15.49753635438880 CXO 1 25867U 99040B 24043.58273907 .00000794 00000-0 00000+0 0 9993 2 25867 38.7089 166.8249 8985306 286.7477 0.4972 0.37805711 25248 ...Continue Reading

[TLELIST] Current TLEs

February 10th 2024 PDT

HST 1 20580U 90037B 24040.61713291 .00007739 00000-0 38396-3 0 9992 2 20580 28.4691 125.2685 0003071 81.2602 278.8337 15.15857692657753 ISS (ZARYA) 1 25544U 98067A 24041.38228329 .00019142 00000-0 34593-3 0 9992 2 25544 51.6398 228.7072 0002119 222.4726 210.6656 15.49720711438738 CXO 1 25867U 99040B 24040.93994967 .00000904 00000-0 00000-0 0 9999 2 25867 38.6748 167.0934 8984272 286.5592 0.6300 0.37805510 14084 ...Continue Reading

[TLELIST] Current TLEs

February 10th 2024 PDT

HST 1 20580U 90037B 24040.61713291 .00007739 00000-0 38396-3 0 9992 2 20580 28.4691 125.2685 0003071 81.2602 278.8337 15.15857692657753 ISS (ZARYA) 1 25544U 98067A 24041.38228329 .00019142 00000-0 34593-3 0 9992 2 25544 51.6398 228.7072 0002119 222.4726 210.6656 15.49720711438738 CXO 1 25867U 99040B 24040.93994967 .00000904 00000-0 00000-0 0 9999 2 25867 38.6748 167.0934 8984272 286.5592 0.6300 0.37805510 14084 ...Continue Reading

[TLELIST] Current TLEs

February 9th 2024 PDT

HST 1 20580U 90037B 24039.69539607 .00007848 00000-0 38964-3 0 9997 2 20580 28.4688 131.4252 0003044 72.6105 287.4820 15.15844217657358 ISS (ZARYA) 1 25544U 98067A 24040.34770866 .00018695 00000-0 33857-3 0 9999 2 25544 51.6389 233.8315 0002053 219.5244 197.9820 15.49678460438579 CXO 1 25867U 99040B 24040.93994967 .00000904 00000-0 00000-0 0 9999 2 25867 38.6748 167.0934 8984272 286.5592 0.6300 0.37805510 14084 ...Continue Reading

[TLELIST] Current TLEs

February 9th 2024 PDT

HST 1 20580U 90037B 24039.69539607 .00007848 00000-0 38964-3 0 9997 2 20580 28.4688 131.4252 0003044 72.6105 287.4820 15.15844217657358 ISS (ZARYA) 1 25544U 98067A 24040.34770866 .00018695 00000-0 33857-3 0 9999 2 25544 51.6389 233.8315 0002053 219.5244 197.9820 15.49678460438579 CXO 1 25867U 99040B 24040.93994967 .00000904 00000-0 00000-0 0 9999 2 25867 38.6748 167.0934 8984272 286.5592 0.6300 0.37805510 14084 ...Continue Reading

[TLELIST] Current TLEs

February 8th 2024 PDT

HST 1 20580U 90037B 24038.70781157 .00007594 00000-0 37690-3 0 9990 2 20580 28.4685 138.0225 0002999 63.0106 297.0792 15.15829358657209 ISS (ZARYA) 1 25544U 98067A 24039.01003627 .00017286 00000-0 31432-3 0 9997 2 25544 51.6398 240.4555 0002067 215.9229 294.1058 15.49623054438366 CXO 1 25867U 99040B 24040.93994967 .00000904 00000-0 00000-0 0 9999 2 25867 38.6748 167.0934 8984272 286.5592 0.6300 0.37805510 14084 ...Continue Reading
  • This mailing list is a public mailing list - anyone may join or leave, at any time.
  • This mailing list is announce-only.

International Space Station (ISS) / Hubble Space Telescope (HST) / Chandra X-Ray Observatory Orbital Data via EMAIL

Privacy Policy:

Private list